Weather History for Newark, NJ

Change the Weather History Date:

Sunday, July 21, 2013

  Actual Average Record
Temperature  
Mean Temperature 28 °C 26 °C  
Max Temperature 32 °C 30 °C 39 °C (2011)
Min Temperature 24 °C 21 °C 14 °C (1951)
Degree Days  
Heating Degree Days 0 0  
Month to date heating degree days 0 0  
Since 1 June heating degree days 8 17  
Since 1 July heating degree days 0 0  
Cooling Degree Days 18 13  
Month to date cooling degree days 389 261  
Year to date cooling degree days 754 576  
Since 1 June cooling degree days 654 500  
Growing Degree Days 33 (Base 50)    
Moisture  
Dew Point 19 °C    
Average Humidity 63    
Maximum Humidity 85    
Minimum Humidity 40    
Precipitation  
Precipitation 0.00 mm 4.06 mm 8.20 mm (2006)
Month to date precipitation 2.96 3.10  
Year to date precipitation 27.95 26.01  
Snow  
Snow 0.00 cm 0.00 cm 0.00 cm (2002)
Month to date snowfall 0.0 0.0  
Since 1 July snowfall 0.0 0.0  
Snow Depth 0.00 cm    
Sea Level Pressure  
Sea Level Pressure 1012 hPa    
Wind  
Wind Speed 9 km/h (ESE)    
Max Wind Speed 21 km/h    
Max Gust Speed 27 km/h    
Visibility 16 kilometers    
Events      
T = Trace of Precipitation, MM = Missing Value Source: NWS Daily Summary

Daily Weather History Graph

Daily Weather History Graph

Search for Another Location

Airport:

Trip Planner

Search our weather history database for the weather conditions in past years. The results will help you decide how hot, cold, wet, or windy it might be!

Date:

Astronomy

Jul. 21, 2013 Rise Set
Actual Time 5:43 AM EDT 8:22 PM EDT
Civil Twilight 5:11 AM EDT 8:53 PM EDT
Nautical Twilight 4:32 AM EDT 9:33 PM EDT
Astronomical Twilight 3:47 AM EDT 10:18 PM EDT
Moon 7:17 PM EDT (7/21) 4:26 AM EDT (7/21)
Length of Visible Light 15h 42m
Length of Day
14h 38m
Waxing Gibbous, 98% of the Moon is Illuminated
Jul 21
Waxing Gibbous
Jul 22
Full
Jul 29
Last Quarter
Aug 6
New
Aug 14
First Quarter

Hourly Weather History & Observations

Time (EDT) Temp. Heat Index Dew Point Humidity Pressure Visibility Wind Dir Wind Speed Gust Speed Precip Events Conditions
12:51 AM 26.1 °C - 21.7 °C 77% 1010.4 hPa 16.1 km Calm Calm - N/A   Mostly Cloudy
1:51 AM 25.6 °C - 22.2 °C 81% 1010.7 hPa 16.1 km SSW 7.4 km/h / 2.1 m/s - N/A   Clear
2:10 AM 25.0 °C - 22.0 °C 83% 1010.7 hPa 16.1 km SW 7.4 km/h / 2.1 m/s - N/A   Mostly Cloudy
2:51 AM 25.6 °C - 21.7 °C 79% 1010.5 hPa 16.1 km SW 7.4 km/h / 2.1 m/s - N/A   Mostly Cloudy
3:51 AM 26.1 °C - 21.7 °C 77% 1010.5 hPa 16.1 km WSW 7.4 km/h / 2.1 m/s - N/A   Mostly Cloudy
4:51 AM 25.0 °C - 21.7 °C 82% 1010.9 hPa 16.1 km West 9.3 km/h / 2.6 m/s - N/A   Mostly Cloudy
5:51 AM 25.0 °C - 21.7 °C 82% 1011.4 hPa 16.1 km NW 5.6 km/h / 1.5 m/s - N/A   Mostly Cloudy
6:51 AM 25.6 °C - 22.8 °C 84% 1011.8 hPa 16.1 km North 16.7 km/h / 4.6 m/s - N/A   Mostly Cloudy
7:51 AM 25.6 °C - 16.7 °C 58% 1012.5 hPa 16.1 km NNE 14.8 km/h / 4.1 m/s - N/A   Mostly Cloudy
8:51 AM 26.7 °C 27.5 °C 17.2 °C 56% 1013.0 hPa 16.1 km NNE 14.8 km/h / 4.1 m/s - N/A   Mostly Cloudy
9:51 AM 27.8 °C 28.1 °C 16.1 °C 49% 1013.2 hPa 16.1 km NNE 14.8 km/h / 4.1 m/s - N/A   Mostly Cloudy
10:51 AM 29.4 °C 29.3 °C 15.6 °C 43% 1013.2 hPa 16.1 km NE 11.1 km/h / 3.1 m/s 27.8 km/h / 7.7 m/s N/A   Mostly Cloudy
11:51 AM 29.4 °C 29.0 °C 14.4 °C 40% 1013.5 hPa 16.1 km East 7.4 km/h / 2.1 m/s - N/A   Mostly Cloudy
12:51 PM 30.0 °C 29.7 °C 15.0 °C 40% 1013.7 hPa 16.1 km ENE 7.4 km/h / 2.1 m/s - N/A   Mostly Cloudy
1:51 PM 30.6 °C 30.5 °C 16.1 °C 41% 1013.5 hPa 16.1 km Calm Calm - N/A   Mostly Cloudy
2:51 PM 30.6 °C 31.3 °C 17.8 °C 46% 1013.4 hPa 16.1 km SE 14.8 km/h / 4.1 m/s - N/A   Mostly Cloudy
3:51 PM 30.0 °C 30.7 °C 17.8 °C 48% 1013.2 hPa 16.1 km SSE 14.8 km/h / 4.1 m/s - N/A   Mostly Cloudy
4:51 PM 28.9 °C 29.4 °C 17.2 °C 49% 1013.1 hPa 16.1 km SE 13.0 km/h / 3.6 m/s - N/A   Mostly Cloudy
5:51 PM 28.3 °C 28.7 °C 16.7 °C 49% 1012.9 hPa 16.1 km SSE 13.0 km/h / 3.6 m/s - N/A   Mostly Cloudy
6:51 PM 27.2 °C 27.9 °C 17.2 °C 54% 1013.1 hPa 16.1 km Variable 7.4 km/h / 2.1 m/s - N/A   Mostly Cloudy
7:51 PM 26.7 °C 27.7 °C 18.3 °C 60% 1013.2 hPa 16.1 km SSE 11.1 km/h / 3.1 m/s - N/A   Mostly Cloudy
8:51 PM 26.1 °C - 18.3 °C 62% 1013.9 hPa 16.1 km SSE 7.4 km/h / 2.1 m/s - N/A   Mostly Cloudy
9:51 PM 26.1 °C - 19.4 °C 66% 1014.4 hPa 16.1 km Calm Calm - N/A   Mostly Cloudy
10:51 PM 25.6 °C - 20.6 °C 74% 1014.4 hPa 16.1 km East 5.6 km/h / 1.5 m/s - N/A   Mostly Cloudy
11:51 PM 25.6 °C - 19.4 °C 68% 1014.1 hPa 16.1 km Calm Calm - N/A   Mostly Cloudy